YZ-1 R/B, 43605

Orbit data source: Space-Track

YZ-1 R/B, 43605 is space debris originally from a launch on Fri, 24 Aug 2018 UTC launched from the Xichang Space Center, China (XSC). Debris objects in space refer to the collection of defunct objects orbiting the Earth. Examples of debris include non-operational satellites, rocket bodies, and fragments generated from explosions, collisions, or faulty payload assembly.

Loading next visibility...
YZ-1 R/B details
Identifier
43605, 2018-067D
Orbit
Active
Last TLE update3 days ago
Origin
Flag of CNCASC (CN / PRC)
ManufacturerCALT
MissionSpacecraft
Bus & MotorYZ-1, Unknown motor
Mass~5,815 kg wet, ~5,815 kg dry
Launch date (UTC)
2018-08-24 (6 years ago)
Launch vehicleUnknown
Launch site
Xichang Space Center, China (XSC)
Object type
Payload
Rocket body
Debris
Shape & HBRDouble Cone, 4 m
Radar Cross Section5.890 m², Large (>1 m²)

Expand to show TLE details & history

TLE from 3 days ago
0 YZ-1 R/B
1 43605U 18067D   24345.87063888  .00000076  00000-0  00000+0 0  9998
2 43605  53.8466 205.6818 0050901  41.6143 318.8633  1.78798189 41113
Epoch: 2024-12-10T20:53Z
Definitive object data (Epoch: 2024-12-10T20:53:43.199Z)
Latitude0.00007°
Longitude172.18872°
Altitude22,186.83 km
Speed3.743 km/s
True Right ascension13h 42m 46s
True Declination0° 00' 00"
Sunlit
Object was in daylight at TLE epoch
Visualization TLE readout
Latitude-5.94897°
Longitude167.72423°
Altitude22,201.125 km
Speed3.741 km/s
Apparent Right ascension13h 44m 23s
Apparent Declination-12° 10' 18"
Sunlit
Object is in daylight
Visualization observer readout
Local Sidereal Time03:42:28
Azimuth51.43° ENE
Elevation-51.971°
Doppler factor1
Orbital elements
Apogee altitude22,442.188 km
Perigee altitude22,150.277 km
Semi-major axis28,674.369 km
Eccentricity0.0050901
Inclination53.8466°
RAAN205.6818°
Arg. of periapsis41.6143°
True anomaly318.47774°
Mean anomaly318.8633°
Eccentric anomaly318.6707°
Mean motion0.44699 °/min
BSTARUnknown
Orbital period805.38 mins
Loading maneuver chart data...
Loading historical data...
Loading historical data...
Loading historical data...
Loading historical data...
Loading historical data...
Loading historical data...
Loading historical data...
Other satellites on launch #67 in the year 2018 (2018-08-24 UTC)

YZ-1 R/B Visibility forecast

Observer location: undefined°, undefined

Span
Click to sort rows by Start time (UTC) header in descending order
Start Az.
Max El. time (UTC)
Max El. Az.
Max El.
End time (UTC)
End Az.
475 mins2024-12-14 18:42:28.458Z244.329° WSW2024-12-14 23:08:28.458Z41.793° NE44.371°2024-12-15 02:37:28.458Z154.859° SSE
|